| time (UTC) | temp C | wind direction | speed KPH | gust KPH | rain 1hr cm | rain 24hr cm | rain mn cm | humidity % | barometer mb |
| 20260504194537 | 17 | 211 | 12.9 | 35.4 | 0.00 | 0.00 | 0.00 | 53 | 1011.7 |
| 20260504193041 | 18 | 138 | 16.1 | 30.6 | 0.00 | 0.00 | 0.00 | 51 | 1011.7 |
| 20260504191541 | 18 | 157 | 14.5 | 29.0 | 0.00 | 0.00 | 0.00 | 51 | 1011.7 |
| 20260504190054 | 18 | 159 | 12.9 | 27.4 | 0.00 | 0.00 | 0.00 | 51 | 1011.9 |
| 20260504184538 | 18 | 164 | 11.3 | 30.6 | 0.00 | 0.00 | 0.00 | 50 | 1011.9 |
| 20260504183035 | 17 | 208 | 16.1 | 35.4 | 0.00 | 0.00 | 0.00 | 50 | 1012.1 |
| 20260504181543 | 17 | 122 | 14.5 | 35.4 | 0.00 | 0.00 | 0.00 | 50 | 1012.3 |
| 20260504180041 | 17 | 153 | 11.3 | 29.0 | 0.00 | 0.00 | 0.00 | 52 | 1012.4 |
| 20260504174540 | 17 | 217 | 12.9 | 29.0 | 0.00 | 0.00 | 0.00 | 55 | 1012.4 |
| 20260504173038 | 17 | 184 | 16.1 | 32.2 | 0.00 | 0.00 | 0.00 | 52 | 1012.4 |
| 20260504171538 | 17 | 247 | 14.5 | 29.0 | 0.00 | 0.00 | 0.00 | 50 | 1012.5 |
| 20260504081537 | 9 | 227 | 1.6 | 11.3 | 0.00 | 0.00 | 0.00 | 60 | 1013.9 |
| 20260504044539 | 6 | 0 | 0.0 | 6.4 | 0.00 | 0.00 | 0.00 | 70 | 1013.1 |
| 20260504043038 | 6 | 0 | 0.0 | 1.6 | 0.00 | 0.00 | 0.00 | 69 | 1013.2 |
| 20260504041538 | 6 | 0 | 0.0 | 3.2 | 0.00 | 0.00 | 0.00 | 68 | 1013.1 |
| 20260504040038 | 6 | 204 | 0.0 | 4.8 | 0.00 | 0.00 | 0.00 | 68 | 1013.1 |
| 20260504034542 | 6 | 254 | 0.0 | 4.8 | 0.00 | 0.00 | 0.00 | 71 | 1013.1 |
| 20260504033040 | 6 | 0 | 0.0 | 0.0 | 0.00 | 0.00 | 0.00 | 70 | 1013.1 |
| 20260504031539 | 6 | 0 | 0.0 | 1.6 | 0.00 | 0.00 | 0.00 | 70 | 1013.1 |
| 20260504030042 | 6 | 0 | 0.0 | 0.0 | 0.00 | 0.00 | 0.00 | 67 | 1013.1 |
| 20260504024540 | 6 | 0 | 0.0 | 0.0 | 0.00 | 0.00 | 0.00 | 66 | 1013.0 |
| 20260504023042 | 7 | 0 | 0.0 | 3.2 | 0.00 | 0.00 | 0.00 | 65 | 1013.1 |
| 20260504021540 | 7 | 0 | 0.0 | 0.0 | 0.00 | 0.00 | 0.00 | 62 | 1012.9 |
| 20260504020038 | 7 | 0 | 0.0 | 0.0 | 0.00 | 0.00 | 0.00 | 59 | 1012.9 |
| 20260504014552 | 8 | 0 | 0.0 | 0.0 | 0.00 | 0.00 | 0.00 | 57 | 1012.8 |
| 20260504013041 | 8 | 0 | 0.0 | 0.0 | 0.00 | 0.00 | 0.00 | 56 | 1012.7 |
| 20260504011536 | 9 | 0 | 0.0 | 1.6 | 0.00 | 0.00 | 0.00 | 52 | 1012.7 |
| 20260504010041 | 10 | 0 | 0.0 | 0.0 | 0.00 | 0.00 | 0.00 | 47 | 1012.5 |
| 20260504004540 | 11 | 0 | 0.0 | 0.0 | 0.00 | 0.00 | 0.00 | 40 | 1012.4 |
| 20260504003041 | 11 | 0 | 0.0 | 1.6 | 0.00 | 0.00 | 0.00 | 38 | 1012.2 |
| 20260504001546 | 11 | 254 | 0.0 | 1.6 | 0.00 | 0.00 | 0.00 | 38 | 1011.9 |
| 20260504000043 | 12 | 0 | 0.0 | 0.0 | 0.00 | 0.00 | 0.00 | 35 | 1011.8 |
| 20260503234541 | 12 | 254 | 0.0 | 1.6 | 0.00 | 0.00 | 0.00 | 34 | 1011.6 |
| 20260503233045 | 13 | 267 | 0.0 | 4.8 | 0.00 | 0.00 | 0.00 | 32 | 1011.3 |
| 20260503231543 | 13 | 267 | 0.0 | 4.8 | 0.00 | 0.00 | 0.00 | 32 | 1011.1 |
| 20260503230037 | 13 | 282 | 1.6 | 11.3 | 0.00 | 0.00 | 0.00 | 30 | 1011.1 |
| 20260503224540 | 13 | 286 | 4.8 | 12.9 | 0.00 | 0.00 | 0.00 | 30 | 1011.1 |
| 20260503223036 | 14 | 274 | 4.8 | 14.5 | 0.00 | 0.00 | 0.00 | 30 | 1011.0 |
| 20260503221549 | 14 | 0 | 3.2 | 11.3 | 0.00 | 0.00 | 0.00 | 31 | 1010.8 |
| 20260503220040 | 14 | 288 | 1.6 | 9.7 | 0.00 | 0.00 | 0.00 | 32 | 1010.9 |
| 20260503214537 | 13 | 232 | 4.8 | 14.5 | 0.00 | 0.00 | 0.00 | 31 | 1010.8 |
| 20260503213037 | 13 | 294 | 4.8 | 17.7 | 0.00 | 0.00 | 0.00 | 30 | 1010.6 |
| 20260503211534 | 13 | 278 | 3.2 | 16.1 | 0.00 | 0.00 | 0.00 | 32 | 1010.6 |
| 20260503210050 | 13 | 303 | 4.8 | 16.1 | 0.00 | 0.00 | 0.00 | 32 | 1010.6 |
| 20260503204550 | 14 | 265 | 6.4 | 19.3 | 0.00 | 0.00 | 0.00 | 32 | 1010.4 |
| 20260503203038 | 13 | 228 | 8.0 | 24.1 | 0.00 | 0.00 | 0.00 | 33 | 1010.6 |
| 20260503201538 | 13 | 267 | 9.7 | 24.1 | 0.00 | 0.00 | 0.00 | 33 | 1010.8 |
| 20260503200044 | 13 | 222 | 3.2 | 19.3 | 0.00 | 0.00 | 0.00 | 36 | 1010.8 |